Sulphur Springs, TX

9:13 PM CST on December 03, 2016 (GMT -0600)
Sulphur Springs Municipal

Weather History for KSLR - January, 2014

Change the Weather History Date:

Thursday, January 2, 2014

  Actual Average (KGVT) Record (KGVT)
Temperature  
Mean Temperature 32 °F -  
Max Temperature 40 °F 56 °F 75 °F (2009)
Min Temperature 24 °F 39 °F 21 °F (2011)
Degree Days  
Heating Degree Days 33    
Moisture  
Dew Point 20 °F    
Average Humidity 62    
Maximum Humidity 76    
Minimum Humidity 41    
Precipitation  
Precipitation 0.00 in - - ()
Sea Level Pressure  
Sea Level Pressure 30.41 in    
Wind  
Wind Speed 15 mph (NNW)    
Max Wind Speed 24 mph    
Max Gust Speed 33 mph    
Visibility 10 miles    
Events      
Averages and records for this station are not official NWS values.
T = Trace of Precipitation, MM = Missing Value Source: NWS Daily Summary

Daily Weather History Graph

Daily Weather History Graph

Search for Another Location

Airport or City:

Trip Planner

Search our weather history database for the weather conditions in past years. The results will help you decide how hot, cold, wet, or windy it might be!

Date:

Astronomy

Jan. 02, 2014 Rise Set
Actual Time 7:26 AM CST 5:27 PM CST
Civil Twilight 6:58 AM CST 5:54 PM CST
Nautical Twilight 6:27 AM CST 6:25 PM CST
Astronomical Twilight 5:57 AM CST 6:55 PM CST
Moon 8:13 AM CST (1/2) 7:18 PM CST (1/2)
Length of Visible Light 10h 55m
Length of Day
10h 01m
Waxing Crescent, 3% of the Moon is Illuminated
Jan 2
Waxing Crescent
Jan 7
First Quarter
Jan 15
Full
Jan 23
Last Quarter
Jan 30
New

Hourly Weather History & Observations

Time (CST) Temp. Windchill Dew Point Humidity Pressure Visibility Wind Dir Wind Speed Gust Speed Precip Events Conditions
12:15 AM 36.3 °F 27.5 °F 28.0 °F 72% 30.17 in 10.0 mi NW 13.8 mph 21.9 mph N/A   Clear
12:35 AM 35.1 °F 25.2 °F 26.8 °F 72% 30.18 in 10.0 mi NW 16.1 mph 24.2 mph N/A   Clear
12:55 AM 34.2 °F 23.6 °F 25.5 °F 71% 30.20 in 10.0 mi NW 17.3 mph 28.8 mph N/A   Clear
1:15 AM 33.1 °F 20.6 °F 25.3 °F 73% 30.21 in 10.0 mi NW 23.0 mph 29.9 mph N/A   Clear
1:35 AM 32.4 °F 20.3 °F 24.6 °F 73% 30.23 in 10.0 mi NW 20.7 mph - N/A   Clear
1:55 AM 32.0 °F 19.5 °F 23.4 °F 70% 30.25 in 10.0 mi NNW 21.9 mph 32.2 mph N/A   Clear
2:15 AM 31.6 °F 19.0 °F 22.8 °F 70% 30.26 in 10.0 mi NNW 21.9 mph 33.4 mph N/A   Clear
2:35 AM 31.1 °F 18.9 °F 22.8 °F 71% 30.27 in 10.0 mi NNW 19.6 mph 24.2 mph N/A   Clear
2:55 AM 30.6 °F 17.3 °F 22.1 °F 71% 30.27 in 10.0 mi NNW 23.0 mph 28.8 mph N/A   Clear
3:15 AM 30.0 °F 16.9 °F 22.1 °F 72% 30.29 in 10.0 mi NNW 21.9 mph 25.3 mph N/A   Clear
3:35 AM 29.5 °F 16.5 °F 21.9 °F 73% 30.30 in 10.0 mi NNW 20.7 mph 26.5 mph N/A   Clear
3:55 AM 28.8 °F 15.2 °F 21.2 °F 73% 30.31 in 10.0 mi NNW 21.9 mph 25.3 mph N/A   Clear
4:15 AM 28.4 °F 15.1 °F 20.8 °F 73% 30.32 in 10.0 mi NNW 20.7 mph 33.4 mph N/A   Clear
4:35 AM 27.9 °F 15.5 °F 21.0 °F 75% 30.32 in 10.0 mi NW 17.3 mph - N/A   Clear
4:55 AM 27.1 °F 13.8 °F 19.9 °F 74% 30.33 in 10.0 mi NNW 19.6 mph 29.9 mph N/A   Clear
5:15 AM 26.6 °F 12.4 °F 19.4 °F 74% 30.34 in 10.0 mi NNW 21.9 mph 27.6 mph N/A   Clear
5:35 AM 26.4 °F 11.5 °F 19.2 °F 74% 30.35 in 10.0 mi NNW 24.2 mph - N/A   Clear
5:55 AM 26.4 °F 13.2 °F 19.4 °F 75% 30.35 in 10.0 mi NNW 18.4 mph 28.8 mph N/A   Clear
6:15 AM 26.1 °F 12.3 °F 19.0 °F 75% 30.36 in 10.0 mi NNW 19.6 mph 26.5 mph N/A   Clear
6:35 AM 25.5 °F 11.3 °F 18.7 °F 75% 30.37 in 10.0 mi NNW 20.7 mph 26.5 mph N/A   Clear
6:55 AM 25.2 °F 12.9 °F 18.5 °F 76% 30.38 in 10.0 mi NNW 15.0 mph - N/A   Clear
7:15 AM 24.8 °F 12.9 °F 18.1 °F 76% 30.39 in 10.0 mi NNW 13.8 mph 24.2 mph N/A   Clear
7:35 AM 24.8 °F 10.0 °F 17.6 °F 74% 30.40 in 10.0 mi North 21.9 mph 28.8 mph N/A   Clear
7:55 AM 24.8 °F 10.7 °F 17.4 °F 74% 30.41 in 10.0 mi NNW 19.6 mph 26.5 mph N/A   Clear
8:15 AM 25.2 °F 13.9 °F 17.8 °F 74% 30.42 in 10.0 mi NW 12.7 mph - N/A   Clear
8:35 AM 25.5 °F 12.9 °F 17.6 °F 72% 30.42 in 10.0 mi NNW 16.1 mph 24.2 mph N/A   Clear
8:55 AM 25.9 °F 12.9 °F 17.4 °F 70% 30.43 in 10.0 mi North 17.3 mph 24.2 mph N/A   Clear
9:15 AM 27.0 °F 14.3 °F 18.0 °F 69% 30.44 in 10.0 mi NNW 17.3 mph 23.0 mph N/A   Clear
9:35 AM 27.5 °F 13.9 °F 17.6 °F 66% 30.45 in 10.0 mi NNW 20.7 mph - N/A   Clear
9:55 AM 29.1 °F 17.1 °F 18.0 °F 63% 30.46 in 10.0 mi NNW 17.3 mph 24.2 mph N/A   Clear
10:15 AM 29.5 °F 17.2 °F 17.6 °F 61% 30.47 in 10.0 mi NNW 18.4 mph - N/A   Clear
10:35 AM 30.4 °F 19.1 °F 17.8 °F 60% 30.47 in 10.0 mi NNW 16.1 mph - N/A   Clear
10:55 AM 31.5 °F 20.9 °F 18.0 °F 57% 30.47 in 10.0 mi NNW 15.0 mph - N/A   Clear
11:15 AM 32.0 °F 21.6 °F 17.8 °F 56% 30.47 in 10.0 mi North 15.0 mph 21.9 mph N/A   Clear
11:35 AM 32.4 °F 23.0 °F 17.6 °F 55% 30.46 in 10.0 mi NNW 12.7 mph - N/A   Clear
11:55 AM 33.6 °F 23.7 °F 17.8 °F 52% 30.45 in 10.0 mi NW 15.0 mph - N/A   Clear
12:15 PM 35.1 °F 27.4 °F 18.5 °F 51% 30.44 in 10.0 mi NW 10.4 mph - N/A   Clear
12:35 PM 35.8 °F 26.9 °F 18.0 °F 48% 30.44 in 10.0 mi NW 13.8 mph - N/A   Clear
12:55 PM 36.3 °F 28.0 °F 17.6 °F 47% 30.44 in 10.0 mi NW 12.7 mph 17.3 mph N/A   Clear
1:15 PM 37.6 °F 30.0 °F 17.8 °F 45% 30.44 in 10.0 mi NW 11.5 mph 16.1 mph N/A   Clear
1:35 PM 38.1 °F 31.2 °F 17.8 °F 44% 30.44 in 10.0 mi NW 10.4 mph 16.1 mph N/A   Clear
1:55 PM 39.2 °F 31.6 °F 17.4 °F 41% 30.44 in 10.0 mi NNW 12.7 mph 16.1 mph N/A   Clear
2:15 PM 39.4 °F 31.8 °F 18.0 °F 42% 30.44 in 10.0 mi NW 12.7 mph - N/A   Clear
2:35 PM 40.1 °F 33.6 °F 18.0 °F 41% 30.44 in 10.0 mi NW 10.4 mph - N/A   Clear
2:55 PM 39.9 °F 32.1 °F 17.8 °F 41% 30.44 in 10.0 mi NNW 13.8 mph - N/A   Clear
3:15 PM 40.1 °F 32.7 °F 18.7 °F 42% 30.44 in 10.0 mi NNW 12.7 mph 18.4 mph N/A   Clear
3:35 PM 40.1 °F 32.7 °F 18.1 °F 41% 30.44 in 10.0 mi NNW 12.7 mph - N/A   Clear
3:55 PM 39.6 °F 31.7 °F 18.0 °F 42% 30.44 in 10.0 mi NNW 13.8 mph 18.4 mph N/A   Clear
4:15 PM 39.4 °F 31.8 °F 17.8 °F 42% 30.44 in 10.0 mi North 12.7 mph 17.3 mph N/A   Clear
4:35 PM 39.2 °F 31.2 °F 18.3 °F 43% 30.44 in 10.0 mi North 13.8 mph - N/A   Clear
4:55 PM 38.3 °F 31.9 °F 18.5 °F 45% 30.44 in 10.0 mi North 9.2 mph - N/A   Clear
5:15 PM 37.4 °F 29.8 °F 19.6 °F 49% 30.44 in 10.0 mi North 11.5 mph - N/A   Clear
5:35 PM 37.0 °F 30.4 °F 19.2 °F 49% 30.44 in 10.0 mi NNW 9.2 mph - N/A   Clear
5:55 PM 36.1 °F 29.9 °F 19.8 °F 51% 30.45 in 10.0 mi NW 8.1 mph - N/A   Clear
6:15 PM 35.6 °F 29.9 °F 20.3 °F 54% 30.46 in 10.0 mi NW 6.9 mph - N/A   Clear
6:35 PM 35.2 °F 28.8 °F 20.8 °F 56% 30.46 in 10.0 mi NW 8.1 mph - N/A   Clear
6:55 PM 34.9 °F 28.3 °F 20.7 °F 56% 30.46 in 10.0 mi NW 8.1 mph - N/A   Clear
7:15 PM 34.7 °F 28.1 °F 20.3 °F 56% 30.46 in 10.0 mi NW 8.1 mph - N/A   Clear
7:35 PM 34.3 °F 27.7 °F 20.5 °F 57% 30.47 in 10.0 mi NW 8.1 mph - N/A   Clear
7:55 PM 33.8 °F 27.0 °F 21.2 °F 60% 30.47 in 10.0 mi NW 8.1 mph - N/A   Clear
8:15 PM 33.6 °F 27.5 °F 21.2 °F 60% 30.47 in 10.0 mi NW 6.9 mph - N/A   Clear
8:35 PM 33.1 °F 27.7 °F 21.0 °F 61% 30.48 in 10.0 mi NW 5.8 mph - N/A   Clear
8:55 PM 32.9 °F 28.5 °F 20.7 °F 61% 30.48 in 10.0 mi NNW 4.6 mph - N/A   Clear
9:15 PM 32.5 °F 28.1 °F 19.9 °F 60% 30.48 in 10.0 mi NNW 4.6 mph - N/A   Clear
9:35 PM 32.2 °F 28.9 °F 20.7 °F 63% 30.49 in 10.0 mi North 3.5 mph - N/A   Clear
9:55 PM 32.2 °F 28.9 °F 21.4 °F 64% 30.49 in 10.0 mi NNW 3.5 mph - N/A   Clear
10:15 PM 31.5 °F 28.1 °F 21.4 °F 66% 30.49 in 10.0 mi NNW 3.5 mph - N/A   Clear
10:35 PM 31.1 °F 27.7 °F 21.7 °F 68% 30.50 in 10.0 mi North 3.5 mph - N/A   Clear
10:55 PM 31.6 °F 28.3 °F 22.6 °F 69% 30.49 in 10.0 mi NNW 3.5 mph - N/A   Clear
11:15 PM 29.7 °F - 20.8 °F 70% 30.49 in 10.0 mi Calm Calm - N/A   Clear
11:35 PM 31.3 °F - 21.6 °F 67% 30.49 in 10.0 mi Calm Calm - N/A   Clear
11:55 PM 30.9 °F 27.5 °F 21.0 °F 67% 30.49 in 10.0 mi North 3.5 mph - N/A   Clear